TJS-3

Last updated on Mon Sep 07 2026 00:03:01 GMT+0000 (Coordinated Universal Time)

1 43874U 18110A 26249.79505749 -.00000069 00000+0 00000+0 0 9990 2 43874 2.7485 79.4334 0004047 137.7131 217.2931 1.00451495 28231
UTC large
Height (km)
Speed (km/s)
/
Latitude / Longitude
Inclination (degrees)
Orbital Period (minutes)
Azimuth
Elevation
Range (km)
Doppler Factor

Next 0 passes for location: London (51.5072 / 0.1276)

No passes found over London.
TJS-3